Wind_Gust
21 27 22 20 21 22 22 23 23 23 23 23 23 23 22 21 20 19 18 18 18 17 17 17 17 17 16 16 16 16 16 17 16 16 17 16 17 18 18 18 18 18 19 19 20 20 20 19 19 19 19 19 19 18 18 17 16 15 14 13 14 13 12 12 13 13 14 15 15 16 15 15 16 17 18 19 18 18 19 21 19 18 12 16 19
25 23 21 22 21 23 23 23 24 23 23 23 23 23 22 21 20 19 18 18 17 17 17 17 17 16 16 16 15 16 16 16 16 16 16 16 16 17 17 18 18 18 19 19 20 20 19 18 18 18 19 18 18 18 17 16 15 14 13 12 11 10 11 11 12 14 14 15 16 17 17 16 15 16 17 17 18 19 19 20 20 13 8 16 17
25 22 20 23 23 25 23 23 24 23 22 22 23 23 22 20 20 18 17 17 17 16 16 17 17 16 16 16 16 16 16 16 16 16 16 16 16 17 17 17 17 18 18 18 19 19 19 18 18 18 17 17 16 16 16 15 14 13 12 11 9 8 11 12 11 11 12 14 16 17 19 18 15 14 15 16 17 18 18 19 17 15 14 16 15
27 23 21 22 23 22 22 24 24 24 22 22 23 22 21 20 19 18 17 17 17 16 17 16 16 17 16 16 16 17 17 16 16 16 16 16 16 17 16 16 17 18 18 18 18 18 18 17 17 17 16 16 16 15 15 14 13 11 10 9 8 6 8 9 8 8 11 13 16 15 11 12 13 14 15 16 16 17 16 16 16 16 17 16 17
27 24 22 22 21 20 23 24 22 23 23 22 23 23 21 20 19 17 17 16 16 17 17 16 17 17 17 18 17 17 17 17 16 15 15 15 15 16 16 17 17 17 18 18 18 18 17 16 16 16 15 15 15 15 13 13 12 10 8 7 6 6 6 7 6 5 6 11 16 12 13 14 10 13 14 15 15 14 14 15 15 16 16 17 16
24 23 22 21 20 21 22 21 23 24 23 23 22 22 21 20 19 18 17 17 17 17 17 17 18 17 17 18 17 17 17 16 16 15 14 13 11 15 16 17 17 17 17 17 17 16 16 15 15 14 14 13 13 13 13 11 11 9 7 5 6 7 7 10 7 8 6 9 10 9 6 13 11 12 14 14 14 13 14 14 14 14 16 17 17
25 22 22 21 20 20 20 21 24 23 22 22 21 21 20 19 19 18 17 17 17 17 17 17 17 18 18 18 18 17 17 16 16 15 14 13 14 13 16 16 16 16 16 16 15 14 14 14 14 13 12 12 11 11 11 10 9 7 6 7 7 7 8 9 11 11 10 10 9 10 5 15 11 12 13 12 14 15 15 15 15 15 16 16 17
22 23 22 21 19 21 21 23 25 23 23 22 20 20 19 19 18 18 18 18 17 17 17 18 18 18 18 18 18 18 18 17 16 15 14 13 11 11 13 15 14 13 13 13 13 13 13 14 13 12 11 11 10 9 8 8 7 6 8 9 9 9 10 11 11 12 14 12 17 9 13 13 10 11 11 12 14 16 15 15 15 16 16 16 16
22 22 22 21 21 24 21 21 23 25 23 21 20 20 19 19 19 18 18 18 18 18 18 18 18 18 19 18 19 19 18 17 16 15 14 14 13 13 13 14 15 15 14 12 11 11 12 12 12 11 12 11 11 9 7 5 6 7 8 9 10 11 11 12 14 16 13 11 12 14 16 14 12 9 12 14 14 14 15 14 13 15 15 16 15
22 22 21 19 23 23 21 21 22 23 22 21 20 19 19 18 19 18 18 19 18 18 18 19 19 19 19 19 18 19 18 17 16 14 13 13 13 12 11 11 12 13 12 11 11 11 11 11 11 11 12 11 10 9 8 6 6 8 9 10 11 13 12 14 15 15 13 6 18 17 17 16 12 11 13 15 16 16 16 17 12 11 11 14 14
24 23 21 22 25 19 19 20 23 22 22 21 20 19 18 18 18 18 18 18 19 19 19 19 20 20 19 18 18 17 17 16 15 14 13 13 12 11 11 10 10 8 10 10 10 11 11 11 10 10 10 10 9 8 8 7 6 8 10 10 11 12 13 14 15 11 15 14 14 16 19 20 11 7 13 15 16 17 18 17 16 16 17 17 17
24 22 20 19 23 18 18 20 22 21 21 20 19 19 18 18 18 18 18 19 19 19 20 20 20 20 19 18 18 17 16 15 14 14 14 13 12 12 11 10 10 10 9 10 10 9 9 10 9 9 9 8 8 8 7 6 7 8 10 11 11 12 13 15 16 13 9 17 18 16 15 16 12 14 16 15 15 15 16 16 16 16 16 16 16
26 26 22 20 20 17 18 19 21 21 21 20 19 18 17 18 18 18 18 17 19 19 20 20 19 18 17 17 17 16 16 15 13 13 13 12 11 10 9 9 9 9 9 9 9 8 8 8 9 9 9 8 7 7 6 5 7 9 10 11 11 12 13 17 15 17 10 17 16 18 15 12 11 13 13 14 14 14 14 14 14 14 14 13 13
25 26 24 20 19 21 18 18 18 19 19 19 18 16 17 18 18 18 18 18 20 20 19 20 18 18 17 16 16 16 15 14 13 13 13 12 10 9 8 8 8 7 8 7 7 7 7 8 8 9 8 7 7 6 5 6 7 8 11 11 11 12 15 13 12 12 13 17 15 18 14 10 10 11 12 13 12 12 12 13 13 13 12 12 11
29 27 23 21 22 21 22 17 17 18 17 16 15 16 17 16 17 17 18 20 20 20 20 19 18 18 17 16 16 15 14 13 13 13 12 11 10 9 8 8 7 7 6 6 6 6 6 7 7 7 6 6 5 4 6 7 8 9 11 11 12 13 14 14 16 14 11 18 17 17 15 11 10 11 12 12 11 10 9 10 10 10 11 11 10
27 27 25 20 20 22 20 21 19 17 16 17 16 18 17 17 17 19 19 20 19 19 19 17 17 17 16 16 15 15 14 14 13 13 12 11 10 8 8 8 8 8 8 7 7 6 5 5 6 6 6 4 4 4 4 6 8 9 11 12 13 14 14 12 12 15 8 17 17 15 14 11 11 11 11 11 9 8 9 9 9 8 9 10 9
27 24 27 23 21 20 23 22 18 20 17 16 17 17 18 17 17 18 19 20 20 20 19 17 17 16 16 16 16 15 14 14 13 12 11 11 10 9 8 8 8 8 7 7 6 4 4 4 5 6 6 5 3 3 4 7 8 9 11 13 14 14 13 13 12 14 11 17 18 16 12 10 11 11 12 10 10 9 8 7 8 8 8 8 8
25 24 27 24 21 21 22 21 21 18 19 18 18 19 19 19 17 18 18 19 20 19 18 17 16 15 16 16 15 15 14 14 14 12 11 11 10 9 8 8 8 8 7 6 6 4 4 4 5 5 5 4 4 5 6 7 8 9 10 12 14 15 15 15 10 14 5 15 16 15 11 9 11 11 11 10 9 9 8 7 7 7 6 7 6
23 26 25 24 23 22 22 22 18 19 18 15 14 18 22 21 19 20 19 19 19 19 18 16 16 15 15 14 14 13 12 13 13 13 13 11 11 10 9 7 8 8 7 6 6 5 4 4 4 4 4 4 4 5 7 8 9 10 11 12 14 14 18 13 9 11 7 14 13 13 11 12 11 12 12 11 9 9 8 8 6 6 7 5 5
22 24 24 26 23 23 21 22 20 18 14 13 15 14 19 21 20 20 20 20 20 18 16 16 16 15 15 14 14 13 11 11 13 12 12 12 10 10 9 7 7 8 7 7 6 5 4 4 4 4 5 4 5 6 7 9 9 11 12 14 14 16 14 11 13 13 11 13 14 11 13 14 14 13 12 11 9 9 9 8 6 5 6 5 5
20 23 21 22 22 23 22 22 20 20 17 15 14 15 16 19 17 21 22 21 19 18 17 16 15 13 13 12 11 10 9 9 12 11 11 9 11 11 9 9 8 7 7 7 6 6 5 5 4 4 5 5 6 6 7 8 10 11 13 13 15 13 12 14 15 9 11 15 13 13 15 16 14 13 12 10 9 8 10 7 6 6 5 6 7
23 22 21 23 23 20 20 22 20 21 19 16 15 13 15 15 13 15 17 18 17 17 16 14 14 11 12 11 10 10 11 11 9 13 10 12 11 11 10 9 8 8 6 6 7 6 7 6 7 7 7 6 6 6 8 9 12 12 12 13 11 10 12 14 14 13 12 13 12 13 16 15 14 14 13 10 8 9 9 6 6 6 6 5 5
22 21 23 25 22 20 21 21 19 19 19 15 15 14 14 11 14 16 15 14 16 17 14 14 11 12 13 12 9 8 11 11 10 13 11 10 11 12 11 10 9 9 8 8 7 8 8 8 9 9 8 7 6 8 9 9 10 14 13 10 9 11 12 16 14 11 12 14 11 15 15 15 15 14 13 11 9 9 9 7 6 6 5 5 5
22 21 25 23 24 20 20 18 20 19 18 16 15 15 14 12 12 13 13 12 14 14 12 10 10 12 13 10 11 10 9 9 14 16 13 9 10 11 12 11 11 11 12 8 9 9 11 11 10 11 8 7 7 8 13 11 10 9 8 9 9 11 14 12 12 13 11 16 14 16 16 16 15 15 14 12 10 10 10 9 8 7 7 6 5
20 24 22 22 21 20 19 18 19 17 16 17 16 16 15 14 13 15 12 10 11 10 9 8 8 10 10 10 9 7 10 10 6 8 10 11 10 9 8 8 7 7 11 8 9 12 9 8 8 8 8 8 9 10 11 10 10 10 10 10 11 12 14 11 11 10 10 12 13 17 16 16 15 15 15 14 12 12 10 10 9 8 8 7 5
19 25 22 22 19 19 18 20 18 15 16 17 17 16 16 14 12 14 13 11 13 9 9 9 9 10 11 5 6 7 9 5 8 8 10 11 12 12 12 11 11 10 12 11 11 9 11 10 9 9 10 9 10 11 11 12 9 9 10 10 12 12 12 10 9 8 10 11 15 19 17 15 16 16 15 15 14 13 12 11 11 10 8 9 9
20 21 20 18 19 18 20 20 17 17 16 16 16 15 13 12 12 12 13 12 10 10 10 9 9 5 5 6 8 3 6 5 9 7 7 5 11 12 12 12 14 13 12 13 12 13 12 12 10 10 10 11 13 15 16 15 10 11 11 12 13 13 12 12 11 7 9 11 9 16 14 16 15 16 15 14 14 14 13 13 13 13 11 12 14
20 19 18 19 19 21 21 18 17 17 16 16 13 16 12 12 12 14 13 11 10 10 10 11 9 5 4 8 5 5 9 4 7 15 13 11 9 7 5 10 8 11 10 8 9 9 9 9 9 11 15 15 16 14 15 15 14 13 11 10 10 10 12 13 11 7 10 13 11 13 13 13 13 15 15 14 14 14 14 14 14 14 13 12 16
20 19 20 20 18 21 19 17 17 16 15 15 14 13 11 11 11 11 11 10 9 10 9 10 9 8 5 6 5 3 7 9 12 9 8 7 6 5 6 3 5 8 6 7 5 6 6 5 7 10 11 10 10 10 11 9 9 5 10 9 9 9 7 9 8 9 9 12 11 11 14 12 12 12 14 15 15 16 15 15 15 15 14 15 16
22 21 21 19 18 19 18 19 16 15 15 13 11 12 10 12 11 11 9 8 10 8 10 10 7 7 5 4 5 7 8 9 7 6 6 5 6 6 7 6 5 7 6 4 5 2 3 7 6 6 9 7 9 11 12 12 10 10 8 10 11 10 8 7 9 7 6 10 10 11 15 14 14 13 13 14 16 16 16 15 16 16 14 14 16
20 21 20 20 17 15 15 14 12 12 12 13 12 12 11 11 10 8 8 8 9 11 10 8 7 7 7 4 6 7 6 8 7 5 2 2 6 6 6 7 7 3 1 2 2 2 4 4 5 6 6 8 8 8 9 9 11 13 10 9 8 9 9 3 7 6 4 8 9 8 12 14 14 14 14 13 14 16 16 16 16 16 16 16 16
21 20 19 18 15 15 14 10 12 14 15 14 12 11 11 10 10 9 8 8 7 10 9 8 7 7 6 7 6 5 5 4 7 6 6 5 6 7 8 5 6 3 1 2 3 3 4 6 7 6 5 6 8 7 8 10 9 11 10 11 10 8 7 8 8 9 8 7 8 8 9 10 12 15 15 15 14 14 16 17 17 17 18 17 18
17 16 20 17 13 13 12 14 13 13 14 14 12 9 9 11 11 8 10 10 9 11 11 9 8 7 6 5 4 4 4 4 5 8 9 8 10 6 5 8 6 3 4 3 4 4 6 6 6 4 7 6 6 8 9 8 8 10 9 11 10 9 7 3 8 8 9 8 9 8 7 10 9 13 16 17 16 15 16 16 17 18 19 19 18
19 17 17 16 14 14 11 11 12 14 12 13 11 9 10 12 11 12 12 12 10 11 9 10 7 7 4 3 4 5 5 4 5 5 6 8 7 7 5 5 4 2 2 3 5 4 5 6 6 5 6 4 6 7 8 9 9 8 8 12 8 9 10 9 4 11 11 10 9 7 7 7 8 9 11 16 16 15 16 15 18 18 19 19 19
18 18 17 17 14 15 13 11 12 12 12 9 12 12 12 13 13 13 13 11 10 11 13 12 11 7 2 2 3 3 5 6 4 3 5 4 5 6 6 8 3 3 4 2 2 5 6 5 4 5 5 6 6 8 8 8 8 8 11 12 12 9 9 9 10 7 6 10 9 8 12 8 8 9 10 9 12 17 18 18 19 18 18 18 20
19 21 23 17 16 13 13 11 10 13 14 16 13 12 13 13 13 13 15 12 10 10 10 5 6 9 11 11 16 14 11 11 9 5 6 8 9 8 12 12 8 6 3 3 4 7 7 5 5 3 4 6 6 7 7 8 7 8 8 9 9 9 9 8 8 7 5 7 7 8 12 13 12 9 10 11 11 14 20 19 19 18 18 18 20
19 22 21 19 16 15 15 17 14 13 14 15 15 14 16 18 18 16 12 8 9 9 9 7 10 10 12 11 13 19 19 16 15 13 14 11 6 6 13 7 7 5 7 5 6 7 5 6 5 5 3 6 6 7 8 8 8 8 7 7 8 8 8 9 8 7 5 5 6 7 12 10 12 9 8 11 11 12 15 21 20 20 19 18 17
18 20 21 20 16 14 14 14 12 12 12 13 14 15 14 16 14 14 11 11 9 11 9 9 10 12 13 12 13 16 15 15 10 12 9 7 6 11 8 8 8 5 5 6 7 9 7 3 5 5 7 6 7 7 9 9 9 9 8 9 10 9 9 9 9 9 10 9 10 7 8 8 11 14 16 12 11 12 10 14 20 20 20 18 18
13 20 21 18 15 14 14 13 12 14 14 13 12 14 13 12 14 14 15 13 12 10 10 10 8 9 10 14 12 11 11 8 10 12 8 7 4 6 6 5 4 5 4 6 7 6 6 6 5 6 7 7 7 7 8 7 7 8 10 11 10 10 11 10 9 9 9 8 7 7 6 8 11 10 11 11 9 9 10 9 9 14 18 20 20
13 14 17 15 15 16 16 15 12 13 15 13 11 14 12 11 12 9 13 12 10 9 8 10 9 11 10 11 12 11 9 10 9 10 5 7 3 5 2 5 6 4 5 6 8 8 7 4 5 8 8 7 8 7 5 7 7 8 9 11 10 10 10 10 8 8 8 6 8 7 8 8 8 9 8 9 10 9 9 10 9 10 13 16 21
11 13 18 17 16 18 17 14 13 13 15 15 13 12 13 12 11 12 11 9 8 11 10 10 10 10 13 12 11 10 12 16 11 6 9 10 9 8 8 10 9 10 10 10 8 7 9 7 6 6 7 8 6 6 7 5 9 9 6 9 12 10 11 9 9 8 6 9 8 8 8 7 8 7 8 14 7 10 11 10 10 10 12 12 16
13 13 15 17 15 14 17 14 12 10 11 13 14 13 10 11 14 14 11 9 9 9 9 8 9 10 13 13 14 16 12 10 10 11 11 11 10 11 12 12 12 11 9 9 10 11 12 13 13 13 10 9 10 9 13 9 7 12 17 16 12 10 10 3 6 6 8 10 9 6 7 9 9 8 6 9 11 15 12 12 11 12 11 11 11
15 14 14 15 15 15 15 12 13 12 12 13 15 15 9 10 11 13 11 10 8 10 8 7 8 11 18 16 14 12 14 15 13 13 14 13 13 13 11 12 12 12 12 13 11 13 13 13 14 12 12 10 9 8 13 13 14 10 11 11 13 18 13 9 7 12 12 10 8 8 9 8 10 8 7 8 10 13 15 14 15 17 13 12 10
16 15 14 18 15 13 14 14 15 13 12 10 13 12 13 14 12 13 10 9 11 8 8 7 7 11 10 12 18 18 16 16 16 15 14 14 14 13 11 11 11 11 11 10 12 14 14 14 15 14 12 12 14 11 12 14 16 14 15 11 14 9 12 7 17 17 13 8 7 11 7 10 8 5 4 7 7 9 10 12 13 14 12 12 12
14 14 14 14 16 17 15 16 15 14 13 11 13 14 16 15 15 14 11 13 11 10 8 8 10 12 15 16 16 16 17 17 15 14 13 12 12 14 14 12 12 13 12 13 13 13 13 11 15 13 13 12 13 13 12 14 16 12 14 15 11 8 7 14 20 19 6 13 9 10 9 9 9 7 7 10 9 10 10 10 12 12 14 14 15
16 13 11 14 17 17 16 16 15 13 14 14 12 13 14 17 15 15 13 11 11 9 9 11 13 14 15 12 14 15 15 15 14 14 13 11 12 13 13 13 11 13 12 12 12 14 14 14 15 14 13 12 13 12 15 13 14 13 12 10 8 12 20 18 12 23 12 13 12 7 12 10 10 10 9 10 10 11 10 12 11 12 13 15 16
16 16 13 15 15 17 15 14 15 14 12 13 13 14 15 14 14 14 13 14 13 8 8 12 15 12 13 14 13 13 14 15 13 13 11 12 11 11 12 12 11 13 12 14 14 13 12 12 13 13 13 13 14 14 15 16 15 11 15 12 10 9 11 14 15 18 23 13 7 13 13 15 16 13 12 11 12 11 12 12 12 13 13 14 14
18 17 17 15 17 18 15 16 14 14 13 13 13 12 15 13 14 13 13 13 12 13 12 13 13 13 15 13 13 13 13 14 14 13 14 12 12 12 12 12 14 14 13 13 12 12 12 12 12 14 15 16 14 14 14 16 18 18 15 15 16 14 13 12 10 15 17 21 28 12 8 15 18 13 11 13 12 13 13 11 12 11 12 13 14
17 16 15 15 16 17 16 15 14 13 12 12 14 13 13 13 13 14 15 12 13 13 14 14 15 14 13 12 15 15 13 12 13 12 12 13 12 10 10 11 12 11 12 12 12 13 11 12 13 16 16 17 16 14 14 15 15 17 19 18 16 16 16 14 15 15 18 20 17 21 27 20 13 9 15 13 15 14 14 15 13 12 12 13 13
16 17 14 14 14 16 18 17 15 14 13 14 15 13 12 12 13 12 16 14 13 14 14 15 13 12 15 13 14 13 11 11 12 12 11 12 10 10 11 11 10 11 12 10 11 12 12 12 12 13 16 16 17 15 14 14 14 16 17 16 18 19 17 18 15 19 17 13 17 22 19 22 28 27 17 18 21 20 18 15 12 12 14 14 13
19 20 18 15 12 16 16 19 16 15 13 14 13 13 12 10 11 12 13 15 14 15 16 15 15 13 14 13 13 10 10 11 11 10 9 9 9 9 10 10 10 11 12 11 11 13 13 12 13 14 15 16 17 16 14 15 16 16 17 17 16 16 18 20 19 20 18 19 22 21 21 18 20 24 21 21 22 22 20 15 12 13 13 13 13
Wind_Speed
7 13 10 13 16 18 18 19 19 18 18 18 18 19 18 17 16 15 15 15 15 14 14 14 14 13 13 13 13 13 13 13 13 13 13 13 14 14 14 14 14 15 15 15 15 16 16 15 14 14 14 14 14 13 12 11 11 11 10 9 8 8 10 10 10 11 11 12 12 11 11 11 12 12 13 14 13 14 15 15 13 8 6 10 15
12 10 9 10 16 18 19 19 19 19 18 18 18 18 18 17 15 15 14 14 14 14 13 14 13 13 13 13 12 13 13 13 13 13 13 13 13 13 14 14 15 15 15 15 15 15 15 14 14 14 13 13 13 12 11 10 10 9 8 7 6 7 9 9 10 11 11 12 12 12 12 11 12 11 13 13 13 15 14 14 13 6 5 12 14
12 11 8 12 18 20 19 19 19 19 18 18 18 18 18 17 15 14 14 14 14 13 13 13 13 13 13 13 13 13 13 13 13 13 13 13 13 13 13 13 13 14 14 15 15 15 14 14 13 13 13 12 12 11 10 9 8 8 7 4 3 6 9 10 8 9 10 11 12 13 12 11 12 11 11 12 13 13 13 13 13 10 8 13 11
15 9 9 14 19 17 18 19 20 20 18 17 17 17 17 16 15 14 14 14 14 14 14 12 13 13 13 13 13 13 13 13 13 13 12 12 13 13 13 13 13 14 14 14 14 14 14 13 13 13 12 12 11 10 9 8 7 6 5 3 2 4 6 7 6 7 9 11 13 11 4 4 6 10 10 11 12 12 12 12 12 13 13 12 13
16 11 10 10 10 14 19 19 19 19 19 18 16 17 17 16 15 14 14 13 13 14 13 13 13 14 13 14 13 14 14 14 13 12 12 12 12 13 12 13 13 13 14 14 14 14 13 12 12 12 11 11 10 9 7 6 6 4 3 2 3 4 4 5 4 4 4 9 13 8 4 3 4 9 9 10 10 10 10 11 12 12 12 12 12
14 11 9 9 9 12 18 17 19 20 19 18 17 16 16 16 15 14 13 13 14 14 13 14 14 13 14 14 14 14 14 13 13 12 11 9 9 12 13 13 13 13 13 13 13 12 12 11 11 10 10 10 9 8 6 5 4 3 3 3 4 5 5 4 2 1 2 3 6 1 3 2 3 5 11 10 10 10 10 10 9 11 12 12 12
17 11 10 9 8 11 16 17 19 19 18 18 17 15 15 15 15 15 14 14 14 14 14 14 14 13 14 14 14 14 14 13 12 11 10 10 11 10 13 12 12 12 12 11 11 10 11 11 11 10 8 8 8 6 4 4 4 5 4 5 5 5 5 5 5 5 3 2 2 2 3 3 3 3 9 9 10 11 11 11 11 11 12 12 12
13 11 10 9 8 13 17 18 20 19 19 18 16 15 15 15 15 15 14 14 14 14 14 14 14 14 14 14 14 15 14 13 12 12 9 8 8 9 11 11 10 10 10 10 10 10 10 10 9 9 8 8 6 5 3 3 4 4 6 6 6 6 7 7 7 7 9 4 3 4 5 3 3 3 9 9 11 12 11 11 11 11 12 12 11
13 13 11 9 10 19 17 17 18 20 19 17 16 15 14 15 15 15 14 14 14 14 14 14 14 14 15 14 15 14 14 14 13 11 11 10 10 11 11 11 11 11 11 9 8 8 9 9 8 8 8 8 7 4 3 2 4 5 6 7 8 8 7 7 7 8 5 2 7 7 5 5 3 3 9 11 9 10 11 10 9 11 11 11 11
13 12 11 9 10 19 17 17 18 19 18 17 16 15 15 15 15 15 15 15 15 14 15 15 15 15 15 15 15 15 14 13 13 11 10 10 10 9 8 9 9 9 8 8 8 8 8 8 8 8 8 7 6 5 4 3 4 6 7 8 8 9 9 9 10 7 4 3 8 7 6 8 3 3 9 11 12 12 11 11 7 8 8 11 11
14 12 11 10 12 15 16 17 19 18 18 16 16 15 14 14 15 14 14 15 15 15 15 15 15 15 15 15 14 13 13 13 12 11 10 9 8 8 8 7 7 7 7 7 7 7 7 8 7 7 7 7 5 5 3 4 4 6 7 8 9 9 10 10 9 3 3 7 8 6 9 11 3 3 9 11 12 12 12 12 12 12 13 13 13
14 12 11 10 16 15 15 16 18 17 17 16 15 15 14 14 14 14 14 15 15 15 15 15 15 15 15 14 14 13 13 12 11 11 10 9 9 9 8 7 8 7 6 6 7 6 6 7 7 7 6 5 5 4 4 4 5 6 7 8 9 8 9 10 6 2 1 8 9 7 6 5 4 7 12 11 11 11 11 11 11 11 12 11 11
14 12 11 10 10 14 15 16 17 17 17 16 15 15 14 14 14 14 15 13 15 15 16 15 14 14 13 13 13 12 12 11 11 9 9 8 8 7 7 7 6 6 5 5 5 6 6 6 7 6 6 5 4 4 3 3 5 6 7 8 8 9 10 11 4 3 2 8 8 7 6 5 4 10 10 11 10 10 10 10 10 10 10 10 9
14 13 12 11 9 16 15 14 14 15 16 15 15 13 13 14 14 14 14 14 15 16 15 15 14 14 13 13 12 12 11 11 10 9 8 7 7 7 6 6 6 5 5 4 4 4 5 5 6 6 5 5 4 3 3 4 5 6 7 7 8 9 10 6 5 5 7 8 7 8 6 4 4 9 9 8 8 9 9 9 8 9 9 8 8
16 15 13 11 10 10 17 14 13 14 14 13 12 13 14 12 13 14 14 16 16 15 15 15 14 14 13 13 12 12 11 11 10 9 8 7 6 6 5 6 5 4 4 4 3 4 4 4 5 5 4 3 3 2 4 5 6 7 7 7 8 9 11 5 4 3 4 8 6 8 7 4 8 9 10 9 7 6 7 7 7 7 8 8 7
17 15 14 11 10 9 10 15 15 14 14 14 13 15 14 13 14 16 15 16 15 14 14 13 13 13 12 12 12 11 11 11 10 9 8 7 6 5 5 5 5 5 4 4 4 3 3 3 4 4 4 2 1 2 3 4 6 6 8 8 9 9 9 8 3 2 2 5 7 6 5 4 9 9 8 8 6 6 6 7 6 6 6 6 6
15 15 15 13 11 9 8 9 11 16 14 14 14 14 15 14 14 15 15 16 16 15 14 14 13 13 12 12 12 11 11 11 10 9 7 6 5 5 5 5 5 6 5 4 3 2 2 3 3 4 3 3 2 1 3 5 6 7 7 8 8 8 8 10 5 3 2 6 7 6 5 5 9 9 9 7 8 6 5 5 6 5 6 5 6
14 14 15 14 12 9 8 8 10 9 8 12 15 15 15 16 14 14 15 16 15 15 13 13 12 12 12 12 11 10 10 10 9 8 8 6 6 5 5 4 5 5 4 3 2 1 1 2 3 3 3 3 3 3 4 5 6 7 8 8 9 9 9 9 4 3 3 6 7 7 5 6 9 9 8 8 6 7 6 5 4 4 4 5 4
13 13 15 14 13 11 9 8 8 8 8 6 6 12 18 17 16 16 16 14 14 14 13 12 12 11 12 11 11 10 9 9 8 8 7 7 6 5 5 4 4 4 3 3 1 1 1 2 2 3 2 2 2 4 6 7 7 8 8 8 10 10 11 6 5 2 2 4 6 6 6 9 9 10 9 8 6 6 6 5 3 3 5 3 2
12 13 12 12 12 11 9 8 8 8 7 6 7 8 14 17 16 17 16 15 15 13 12 11 12 11 11 11 10 8 8 6 9 6 7 8 7 4 5 5 4 4 4 2 2 1 1 1 2 2 2 1 2 3 5 7 8 8 9 9 9 11 6 4 3 4 4 3 6 6 8 11 11 10 9 8 7 6 6 5 3 2 3 3 2
9 11 11 12 12 12 11 8 8 9 8 7 6 7 10 15 14 17 17 16 13 13 11 11 10 10 9 9 9 6 5 4 5 3 7 3 6 7 5 5 4 4 4 3 2 2 2 3 3 2 3 3 2 4 6 7 8 9 9 9 9 6 5 5 2 1 5 4 4 5 12 13 11 10 9 7 6 5 6 4 4 3 3 4 4
11 10 10 12 12 11 11 10 9 9 9 7 5 6 7 10 7 8 9 10 10 10 7 4 7 3 9 7 4 4 4 4 5 6 3 4 5 7 6 5 5 5 3 3 2 3 4 4 5 5 5 4 4 2 3 6 9 10 9 9 6 5 6 5 4 1 4 5 4 7 13 12 12 11 10 7 5 6 6 4 3 4 2 3 2
11 10 10 12 12 11 10 11 9 9 9 7 6 6 7 6 7 7 6 8 8 6 4 4 3 3 3 4 4 3 4 5 4 5 4 6 5 8 6 5 5 5 5 4 4 4 5 6 7 6 6 6 2 3 3 4 5 10 9 6 5 5 5 6 6 1 5 5 4 11 13 12 12 11 10 8 6 7 7 5 4 3 3 2 2
12 11 12 10 13 10 11 10 10 10 8 7 7 6 6 7 6 6 5 5 4 5 4 4 4 4 4 5 4 3 4 5 8 11 8 4 4 7 7 6 6 6 6 4 6 7 8 8 7 8 5 3 3 3 4 5 5 5 5 5 5 5 5 5 6 2 5 6 6 12 13 13 12 12 11 10 8 7 7 7 5 4 5 4 1
9 11 10 11 12 11 10 10 11 9 8 7 7 7 6 6 6 6 5 5 5 4 5 4 5 5 6 5 5 4 5 6 3 4 6 5 4 3 3 3 2 2 5 3 3 4 4 4 4 5 5 4 4 5 5 6 5 5 6 6 5 5 6 6 5 3 5 5 6 13 13 13 12 13 12 11 10 9 8 7 6 6 6 5 4
10 11 11 12 11 11 10 11 10 9 9 7 7 7 6 7 7 6 6 5 6 5 5 5 5 6 5 3 4 5 5 3 3 4 5 4 3 3 4 3 3 3 3 4 3 3 3 4 4 5 5 5 5 5 5 6 5 5 6 5 6 5 6 6 6 1 4 4 7 13 12 11 11 12 12 12 11 10 9 9 8 7 7 8 7
10 10 11 10 10 11 12 12 9 9 9 8 7 5 5 6 6 6 6 5 6 5 6 6 6 3 4 3 4 0 1 2 1 2 3 2 3 3 3 4 4 4 4 3 2 4 4 4 4 5 5 3 5 5 6 6 5 5 6 6 6 6 6 6 7 3 5 5 5 11 10 11 10 11 11 11 11 11 10 11 10 9 8 9 11
8 10 10 9 11 13 13 11 9 9 8 9 7 7 6 6 7 7 7 6 6 5 6 4 3 3 2 3 2 1 0 3 2 4 2 3 1 1 2 5 5 5 5 4 5 5 5 4 5 5 5 4 5 5 5 7 8 7 7 6 5 6 6 7 7 2 5 6 6 9 11 10 10 9 11 11 11 11 12 11 11 10 10 10 12
1 9 9 10 11 12 12 10 11 11 9 8 8 7 6 6 6 6 7 6 6 6 5 3 3 2 3 3 1 1 4 3 3 2 1 1 0 2 1 1 3 5 4 5 3 1 2 3 3 4 5 5 5 5 5 4 3 3 5 5 5 5 5 2 3 3 4 5 5 7 11 10 10 10 10 11 11 12 12 12 12 11 11 8 13
6 2 4 6 6 7 8 11 11 8 9 8 6 7 6 7 7 7 6 5 6 5 6 5 3 3 3 1 2 4 4 4 3 1 3 3 3 2 3 2 3 1 1 1 2 1 2 3 3 4 4 4 5 5 6 6 5 5 3 4 5 6 5 4 4 4 3 5 5 6 12 11 11 11 11 11 12 12 12 12 12 12 11 10 13
6 7 6 7 5 3 4 7 5 6 7 7 7 7 7 7 6 5 5 5 6 6 6 5 4 3 3 3 4 3 4 4 4 1 0 1 3 3 4 3 3 2 0 0 1 1 2 3 3 4 3 4 5 4 4 5 5 4 4 5 4 3 6 2 3 3 3 5 5 5 7 11 11 10 11 10 11 12 12 12 12 13 12 12 12
6 7 7 7 4 5 3 4 5 8 9 6 7 7 7 6 6 6 5 5 5 6 5 5 4 3 3 4 3 3 3 2 3 2 1 1 1 4 4 3 3 2 0 1 2 2 2 4 4 4 3 3 4 4 4 4 5 4 5 5 5 5 3 3 5 4 3 2 5 4 4 6 10 11 11 11 10 11 12 13 13 13 13 13 14
5 8 8 3 5 3 5 2 7 8 8 7 6 5 6 6 6 5 6 6 6 6 6 5 5 3 3 3 2 2 1 1 2 2 1 1 2 2 2 3 3 2 1 1 2 2 2 3 3 3 4 4 4 5 5 4 4 5 5 5 5 5 3 0 4 5 4 3 2 4 3 4 5 9 11 11 12 11 12 12 13 14 14 14 15
7 4 5 1 3 6 4 3 7 7 7 6 6 5 6 7 6 6 6 7 6 6 5 6 4 3 2 2 1 0 1 1 1 2 2 3 2 2 2 3 3 0 0 1 3 3 3 4 3 3 4 3 4 5 5 6 5 5 4 3 3 5 5 4 1 3 4 4 3 4 1 2 3 5 5 10 12 12 13 12 14 15 15 15 15
9 8 5 6 8 5 4 5 6 5 5 5 7 7 6 7 7 7 6 5 5 6 6 5 3 4 2 1 0 0 1 1 2 1 2 3 3 3 4 5 2 2 3 1 2 3 3 4 3 3 3 4 4 5 4 5 5 5 5 6 5 5 4 3 3 3 4 5 2 2 3 3 5 5 6 5 8 13 13 14 14 15 15 15 16
11 11 10 6 3 6 5 7 6 7 7 8 6 7 8 8 7 6 6 5 5 6 6 1 1 3 5 6 10 9 7 7 5 3 4 5 4 4 4 2 5 3 3 2 2 3 4 3 3 2 3 4 4 4 5 5 4 5 5 6 6 5 5 5 4 4 3 3 4 3 4 5 5 5 5 5 5 6 13 14 14 15 15 15 16
7 7 7 6 7 7 8 8 7 8 8 8 7 7 10 10 8 5 5 4 5 5 4 4 5 4 5 6 5 6 4 5 8 7 6 5 3 1 4 4 3 3 4 3 4 4 3 4 3 3 2 3 4 5 5 5 5 5 5 5 5 5 5 6 5 5 3 2 3 4 5 5 5 6 5 5 5 6 9 14 16 16 15 15 14
9 9 10 10 9 8 8 8 7 7 7 7 7 7 8 8 5 4 5 5 5 4 5 5 5 3 4 5 6 5 5 5 2 5 5 4 1 1 3 4 4 3 3 3 4 4 3 2 3 3 4 3 4 4 5 5 5 5 5 6 6 5 6 6 6 5 4 4 4 4 5 5 5 6 6 5 5 5 6 9 14 16 16 15 15
8 9 8 9 8 8 7 7 7 8 8 7 7 8 8 7 5 5 4 5 4 4 4 6 4 3 5 6 6 5 3 1 2 3 2 2 2 2 3 3 2 3 3 4 4 3 3 3 3 3 4 4 4 5 5 4 4 5 6 7 6 6 6 6 6 6 5 4 4 4 3 5 5 5 6 6 6 5 6 6 5 6 8 15 16
8 8 10 9 10 8 7 6 7 7 7 6 7 8 7 6 6 4 4 4 4 4 4 5 4 4 4 5 4 3 3 4 1 4 1 2 1 3 2 2 4 3 3 4 5 5 5 3 3 3 4 4 5 4 3 4 4 5 5 6 6 6 7 6 5 5 3 3 4 3 4 4 5 5 5 5 4 4 5 6 5 6 6 10 16
8 8 9 8 10 10 10 8 5 7 8 7 5 6 7 6 5 6 6 3 3 4 5 4 4 3 2 3 2 4 4 4 5 2 4 5 5 5 5 6 6 6 6 6 5 5 6 5 4 3 4 4 4 4 4 3 3 4 4 5 6 5 6 5 4 3 4 6 5 4 5 4 5 4 5 5 4 3 4 4 5 5 6 6 7
8 7 9 9 8 8 9 7 5 6 6 7 7 6 4 5 6 6 6 5 4 5 5 4 4 4 3 3 2 0 2 5 5 6 6 7 6 6 7 7 7 6 6 6 7 7 8 8 7 7 5 5 5 6 7 5 3 4 7 7 5 5 5 1 1 2 4 6 5 4 4 4 5 4 3 3 4 4 4 5 5 6 7 6 6
10 7 6 8 8 8 8 6 6 5 6 7 7 7 3 5 5 5 6 4 4 3 4 4 5 5 2 3 3 2 7 7 7 8 8 8 8 7 7 7 7 7 7 7 7 8 7 8 8 7 7 5 4 4 8 8 6 6 5 2 5 7 6 4 4 8 8 6 4 4 5 4 6 5 5 4 5 5 4 5 5 6 7 7 6
8 7 7 8 7 7 7 7 6 5 6 5 6 5 5 5 6 6 5 4 5 3 4 4 3 2 3 5 6 8 9 9 9 9 8 8 8 8 6 6 6 6 6 6 6 7 7 7 7 7 6 6 6 5 7 8 7 7 6 3 4 4 6 3 9 8 4 4 4 5 4 6 5 3 3 5 5 5 5 5 7 7 7 7 6
8 8 7 6 5 7 6 8 6 6 6 6 8 7 7 6 7 7 6 8 6 4 3 3 3 6 7 8 9 10 10 10 9 9 8 7 7 7 6 6 6 6 5 7 6 6 6 5 7 6 6 5 6 4 6 8 8 7 6 5 4 1 1 6 10 5 2 7 5 4 5 6 6 4 4 6 5 6 6 6 7 6 7 7 7
10 7 7 6 6 6 6 5 5 5 5 6 8 7 7 8 7 7 7 6 6 5 5 6 7 7 8 7 9 9 10 9 9 9 8 7 6 6 6 6 6 7 6 6 6 7 8 8 7 5 6 6 4 5 6 6 6 7 7 5 3 5 8 8 6 7 6 4 3 4 7 7 7 7 6 6 6 6 5 6 5 7 7 7 7
9 9 7 7 8 7 5 4 5 6 4 5 6 7 7 6 7 7 7 7 7 3 3 7 8 7 7 8 7 8 9 9 8 8 7 7 6 6 6 6 6 6 6 6 6 6 5 5 6 7 6 7 8 7 7 7 5 6 7 6 6 5 6 6 6 8 10 4 3 7 7 9 10 8 7 7 7 6 5 5 6 7 7 7 7
10 9 8 7 9 7 5 4 5 6 5 6 6 6 8 6 7 7 7 7 7 7 8 7 7 7 8 8 7 7 8 8 8 8 7 6 6 6 5 6 6 6 6 6 6 5 6 6 7 8 8 8 8 7 6 8 8 7 8 8 7 6 6 5 5 6 5 9 13 6 2 8 9 6 6 8 7 7 8 6 6 7 7 7 7
9 10 9 8 7 6 5 5 5 5 5 5 5 4 4 6 7 7 8 6 7 7 8 8 8 7 8 6 8 8 8 7 7 6 6 6 5 5 5 6 7 6 7 6 6 6 7 7 8 9 8 7 7 6 6 7 7 7 7 8 6 7 5 4 6 7 6 7 7 10 14 11 6 2 9 7 9 8 8 9 8 7 7 8 7
7 8 8 8 7 6 7 6 4 3 3 4 5 5 5 6 7 7 10 8 7 8 7 8 7 7 8 8 8 7 6 6 6 7 6 5 5 5 5 6 6 6 5 5 5 6 6 6 7 7 7 7 6 6 6 5 6 6 7 6 7 7 6 5 6 8 5 3 6 9 10 12 15 12 8 9 12 11 10 8 7 7 7 7 5
8 9 8 8 7 7 7 6 4 3 3 4 4 6 5 5 6 7 8 10 9 9 9 8 7 7 8 7 7 6 6 6 6 6 5 5 5 5 6 5 5 4 5 4 5 6 5 6 7 7 6 5 5 5 6 5 5 6 7 6 6 7 6 7 8 8 8 7 9 8 8 7 9 13 11 11 11 11 10 8 7 7 6 5 3
Wind_Direction
138 134 137 135 129 126 123 123 122 122 122 122 117 115 113 113 112 111 109 107 104 102 101 97 94 92 91 90 87 88 88 86 87 89 90 91 94 96 97 95 93 94 93 91 92 91 88 86 85 82 80 77 75 72 71 71 72 77 79 82 82 84 78 75 78 81 83 83 80 77 81 85 79 73 71 72 73 80 78 76 71 61 60 64 65
140 135 131 136 130 126 126 125 124 125 125 124 119 117 116 115 115 113 111 109 106 105 102 98 97 95 96 96 95 93 90 93 94 94 94 96 97 97 96 97 98 98 96 96 94 89 88 87 85 82 78 77 74 73 71 73 74 77 79 83 86 80 77 78 84 87 91 91 89 85 84 81 75 73 72 73 74 72 75 76 76 72 69 69 68
123 131 133 135 132 129 128 127 127 126 127 125 121 119 119 117 117 116 113 110 108 107 103 102 100 100 100 98 98 96 97 98 97 98 99 99 98 98 98 101 102 100 99 97 93 92 90 88 84 81 77 73 71 69 70 71 74 77 84 86 82 74 74 79 83 96 96 95 93 88 78 77 78 72 67 67 70 73 78 80 76 71 79 80 75
127 131 134 136 133 130 130 130 129 129 128 126 123 122 121 121 120 118 114 112 110 109 108 104 104 105 104 102 100 101 100 99 99 100 101 102 103 100 100 99 100 101 100 97 97 95 92 87 84 81 78 71 67 64 65 68 72 76 79 89 59 39 65 68 77 93 106 105 97 90 67 56 63 75 73 73 75 77 81 86 88 84 80 78 78
127 134 134 133 133 133 132 132 131 132 130 128 126 126 124 124 122 119 116 114 113 111 111 108 109 109 107 106 105 104 104 102 102 101 101 100 102 107 103 101 100 99 100 100 99 96 94 89 85 82 80 75 69 64 57 60 67 75 75 65 44 38 32 54 54 75 139 128 109 91 82 80 79 77 76 74 75 79 83 85 87 86 84 81 80
129 132 132 132 134 137 133 135 135 134 134 133 130 129 128 127 126 122 121 119 115 114 113 114 114 112 112 109 107 106 104 102 99 99 98 101 96 98 101 98 97 98 98 99 100 98 91 85 85 85 79 74 69 63 49 41 42 45 42 26 28 31 25 22 34 353 150 272 224 88 88 81 79 77 76 74 80 80 80 86 88 87 84 82 82
128 131 133 133 136 138 136 136 136 136 134 135 134 132 131 130 127 125 124 121 118 117 116 118 116 115 114 112 110 107 105 102 99 100 101 97 101 106 101 102 103 102 101 100 96 95 93 89 82 77 73 70 65 58 39 18 13 9 12 13 16 18 13 8 351 335 295 260 217 126 110 107 89 92 86 88 83 79 77 76 80 85 88 86 86
125 132 134 134 137 141 136 138 138 137 137 136 136 135 133 131 127 126 124 122 121 119 119 119 119 117 114 112 110 108 107 104 102 100 95 98 102 101 103 105 107 108 105 100 101 93 90 81 78 74 68 63 63 57 52 347 354 357 355 358 5 6 0 353 348 325 305 262 154 142 130 117 95 96 93 91 87 86 81 76 75 78 82 84 83
127 128 131 134 140 142 140 139 139 139 138 138 136 136 136 132 128 126 125 123 122 120 121 121 121 118 114 112 109 107 105 105 104 98 88 86 88 85 83 85 81 78 77 78 82 84 82 82 74 66 62 63 59 49 23 329 331 348 353 353 351 354 353 348 337 335 323 346 118 118 123 109 113 100 89 96 105 89 87 84 76 80 84 85 81
126 123 127 133 143 143 141 140 140 139 140 138 137 137 136 133 130 128 127 126 123 123 123 123 120 117 115 112 109 107 104 104 106 98 92 90 95 100 96 93 83 88 93 99 93 84 81 76 69 65 62 62 65 46 26 8 345 345 349 353 351 348 349 346 348 355 4 62 105 107 110 112 111 94 89 92 94 89 85 89 94 85 81 78 80
122 124 126 135 143 142 141 141 140 139 139 139 138 137 136 134 131 129 127 127 126 125 124 122 120 119 117 113 110 107 105 105 105 105 105 107 104 102 103 97 105 104 99 91 87 78 72 69 65 59 64 69 67 64 41 22 359 351 348 350 352 348 346 344 343 358 0 112 104 106 103 104 94 95 105 95 89 86 85 86 85 83 82 82 78
121 124 128 134 143 141 141 141 139 138 139 139 137 136 135 134 132 131 130 130 130 128 124 120 122 120 116 114 112 109 107 107 105 107 109 111 110 109 101 91 90 94 87 80 72 66 65 65 57 61 66 73 69 53 49 16 5 350 351 348 347 344 338 335 333 326 16 118 104 106 105 96 93 99 102 99 94 92 88 78 74 74 75 74 76
122 125 127 131 135 143 141 141 141 139 139 138 137 137 136 135 134 134 131 129 129 127 124 123 121 118 116 115 112 111 110 108 110 110 110 107 109 112 121 112 105 103 102 86 75 75 65 58 54 53 62 69 67 55 26 2 355 354 345 345 341 340 339 335 325 331 125 112 107 107 104 105 103 104 105 107 102 97 91 89 84 82 79 80 80
122 125 126 128 137 143 142 141 141 140 139 139 139 139 138 136 136 133 133 132 129 126 124 124 122 120 118 116 116 114 113 113 111 113 116 120 119 123 124 127 119 112 106 98 89 73 66 52 49 54 58 57 41 28 7 357 346 343 342 339 338 338 338 342 349 4 121 123 120 116 115 113 114 113 107 109 106 96 92 90 88 85 82 80 81
125 128 127 131 138 139 143 142 142 141 138 134 136 137 136 135 132 133 134 132 128 126 126 125 124 122 121 119 119 121 119 119 118 117 115 119 124 125 129 130 131 130 115 117 103 83 62 49 46 45 56 63 52 4 358 335 339 332 336 335 336 339 345 343 350 353 149 119 119 120 120 128 131 122 116 112 114 104 97 93 94 94 86 78 79
128 129 128 129 132 139 140 145 143 135 129 131 136 139 135 133 135 136 135 131 128 129 128 126 126 125 125 125 126 126 126 125 124 121 120 117 118 121 129 132 138 138 143 129 116 89 50 43 37 33 38 47 46 16 321 328 320 325 330 333 332 337 335 332 342 5 83 123 119 126 134 136 135 127 128 117 110 118 116 112 100 87 84 84 86
125 129 129 132 135 134 141 141 139 133 127 126 134 135 135 133 134 137 134 132 132 131 131 130 129 131 132 133 133 134 135 134 130 129 127 120 112 122 128 129 132 138 139 128 112 89 43 21 34 28 19 5 344 314 314 308 316 314 318 322 326 326 330 333 325 0 172 133 127 132 143 140 141 137 131 136 131 125 118 111 119 120 102 80 81
128 133 132 134 136 139 136 138 139 130 131 128 136 139 139 136 135 137 134 134 135 135 134 134 135 137 137 136 135 136 135 131 131 131 125 117 116 117 125 139 139 135 134 135 129 101 28 7 13 24 8 1 328 291 298 304 300 304 313 318 322 325 327 335 326 24 122 143 134 139 147 154 145 137 136 134 135 129 128 115 105 119 130 124 123
133 135 136 137 139 141 137 137 134 131 126 129 137 145 142 140 138 139 136 135 137 138 137 139 141 139 137 135 137 136 131 131 131 127 129 133 126 122 131 146 155 157 153 158 157 166 16 352 345 3 4 339 312 300 302 302 305 307 312 321 322 324 331 338 326 5 161 141 142 138 153 153 144 141 138 134 138 135 127 126 112 93 103 122 119
137 140 140 138 141 141 140 143 139 136 132 130 132 139 142 141 142 140 138 138 140 141 145 146 144 141 140 142 141 136 135 138 140 141 145 144 142 146 149 154 163 171 164 171 185 174 287 301 308 340 328 287 264 282 286 295 301 304 310 314 316 322 324 317 323 326 120 148 136 146 156 150 149 146 142 143 144 137 132 125 123 132 122 113 145
139 146 142 141 139 140 148 146 145 143 138 131 129 134 143 141 144 143 143 143 145 149 152 149 142 145 143 146 144 142 148 154 149 161 156 160 158 156 158 160 175 165 175 187 195 221 262 270 295 292 296 275 255 251 271 278 289 294 296 298 307 316 309 310 6 299 136 148 146 154 155 151 153 151 147 151 160 155 141 138 145 139 117 128 125
149 148 147 141 136 147 155 149 149 148 139 131 131 132 133 132 129 140 143 148 151 156 148 137 144 148 156 158 152 159 158 161 173 170 161 161 153 161 164 172 173 178 187 203 225 244 266 281 279 275 270 283 282 278 269 270 267 266 273 282 295 293 293 300 306 156 153 145 159 162 156 156 159 157 152 161 168 151 152 145 160 139 177 170 162
155 151 147 144 144 154 155 153 153 146 138 132 132 132 128 126 130 139 146 149 160 147 137 148 136 174 173 174 178 175 167 182 184 169 164 165 169 166 173 174 179 190 194 205 227 242 253 258 263 273 277 280 296 272 258 251 258 264 259 266 275 272 276 282 286 172 164 153 167 166 162 163 163 160 158 166 179 175 162 171 170 171 166 151 246
159 152 147 149 152 157 154 153 147 142 136 135 136 138 133 132 135 138 141 145 148 147 166 164 172 191 188 191 193 191 184 184 193 170 171 159 175 174 180 185 193 203 210 215 226 227 233 242 251 258 275 275 251 243 247 246 244 241 255 254 255 262 259 258 271 211 168 162 167 174 169 167 168 166 162 170 182 172 181 176 182 190 154 198 153
153 140 145 153 158 151 149 143 139 140 137 138 144 149 142 135 140 140 147 151 157 169 184 180 188 196 203 197 196 190 186 192 170 152 132 160 175 172 183 194 221 220 216 219 233 244 239 246 256 257 251 248 243 236 238 243 229 220 226 238 241 254 264 265 260 265 168 162 167 177 176 173 173 171 170 175 182 185 195 186 194 206 171 170 157
137 146 152 154 156 146 142 138 143 142 141 143 145 152 141 141 144 150 154 162 168 181 194 195 189 193 213 184 197 156 144 180 151 150 166 162 158 187 194 189 212 240 230 223 229 232 251 255 244 246 246 235 246 257 254 251 235 214 222 227 226 242 256 268 266 202 154 167 180 178 180 177 176 176 176 179 182 192 196 193 195 205 200 174 180
144 147 150 150 143 136 136 140 140 138 141 146 148 144 148 149 149 150 158 170 176 180 192 188 190 162 180 135 93 122 124 137 220 158 95 102 178 207 208 195 202 228 234 212 245 240 232 237 260 252 253 253 258 260 265 269 260 235 225 221 223 229 240 254 258 104 150 156 174 185 183 183 182 186 188 185 192 197 202 196 199 204 209 195 184
139 141 141 140 136 137 138 140 138 144 148 156 154 153 160 153 158 163 160 176 169 179 174 175 153 119 116 117 125 87 263 57 89 57 57 62 67 188 228 213 191 221 224 185 230 237 223 224 237 243 243 243 246 252 260 269 269 249 227 229 226 232 240 242 250 174 156 161 172 191 189 186 186 193 192 198 198 204 205 207 206 207 214 202 188
170 138 139 137 141 137 138 141 149 153 155 156 149 159 158 153 155 162 160 173 172 175 149 143 156 149 105 126 112 49 47 85 73 61 91 68 266 331 288 245 190 200 193 203 212 166 183 189 194 208 222 236 234 241 236 251 274 251 230 239 231 228 220 225 277 273 151 168 177 191 187 185 189 195 199 204 209 210 212 214 210 214 218 199 182
306 359 91 84 78 106 137 155 154 154 143 138 147 153 150 142 153 158 153 144 157 123 134 138 155 114 101 101 117 91 86 89 77 27 51 353 341 322 310 350 342 350 300 285 294 302 326 335 330 336 325 319 330 319 333 331 329 332 307 264 276 274 253 229 243 269 155 174 180 188 191 188 191 197 201 208 214 218 218 218 217 217 220 189 185
348 39 28 58 12 357 152 145 147 124 108 121 133 133 127 126 135 131 114 87 103 110 115 128 140 127 136 65 80 94 107 99 114 106 40 358 315 317 322 333 338 312 161 297 329 360 331 319 296 288 295 309 299 295 316 323 317 317 326 324 308 282 269 243 222 204 162 165 182 189 198 193 193 194 206 210 217 222 224 225 224 218 219 202 197
12 50 40 67 75 316 164 183 129 109 116 115 115 115 114 112 127 120 94 94 98 92 90 76 74 79 85 96 82 83 93 122 110 151 184 254 309 302 311 323 279 285 39 21 334 332 314 300 306 296 282 285 292 301 301 305 309 302 314 314 315 323 297 265 253 259 242 162 173 191 193 201 200 200 204 211 221 227 229 231 229 223 221 218 213
39 59 54 53 77 230 266 145 93 110 113 118 118 121 102 105 114 91 77 72 66 68 62 59 62 69 79 84 77 98 101 126 148 174 187 231 256 287 305 294 298 288 290 292 305 312 337 321 314 318 325 325 325 317 314 311 308 307 309 301 317 316 330 294 260 286 286 274 196 182 174 196 202 210 210 213 218 223 230 236 237 232 225 224 223
72 75 111 131 180 233 197 89 99 108 119 122 122 101 88 85 77 74 76 74 69 72 63 47 43 40 56 45 100 123 143 220 208 222 205 244 284 331 303 288 301 330 13 328 355 349 344 336 302 341 321 331 319 304 310 306 291 295 297 295 305 302 313 328 293 241 252 260 257 80 127 217 203 211 223 225 223 222 226 231 237 238 232 228 229
137 147 165 187 204 156 96 86 92 96 92 78 80 90 90 85 79 69 67 75 73 74 66 32 17 339 22 346 119 34 117 280 315 32 41 62 38 353 360 338 321 35 13 360 13 316 314 289 285 308 306 314 303 298 296 286 286 290 289 297 291 286 299 292 294 249 236 241 194 160 169 191 201 205 214 219 231 230 227 229 232 236 237 234 233
153 153 144 165 91 68 72 81 74 79 78 81 76 83 78 72 67 70 62 44 64 70 76 104 17 4 23 18 6 2 9 2 349 13 48 28 29 22 334 5 291 26 5 3 354 318 297 288 289 266 318 311 322 313 311 306 301 290 286 286 279 280 281 280 275 268 228 184 200 196 211 233 237 229 214 220 224 229 231 230 232 236 237 238 237
131 97 105 93 91 94 87 87 85 90 90 84 80 70 76 72 71 74 73 65 76 76 77 57 47 48 41 38 55 61 44 353 6 6 14 358 346 18 336 294 359 19 26 3 344 318 322 311 326 328 319 292 314 308 311 308 302 292 289 289 279 277 274 265 263 255 251 215 215 229 229 230 234 235 229 217 223 224 228 229 231 233 236 236 237
136 134 135 125 126 118 108 108 112 105 100 99 95 85 80 86 78 65 66 65 70 78 79 68 57 41 65 52 52 42 37 25 12 339 7 304 32 44 345 335 350 9 14 353 316 322 330 23 3 345 348 333 315 306 300 299 301 301 301 294 290 280 268 263 254 256 255 262 258 238 225 212 212 224 231 234 227 222 226 233 234 234 234 234 234
134 130 123 124 118 117 115 117 113 106 99 101 98 92 91 101 107 91 76 78 75 77 77 72 65 47 61 67 56 50 331 13 344 340 16 320 1 343 333 307 311 359 343 329 319 325 344 18 40 339 336 318 293 287 285 291 303 301 294 289 287 280 274 266 262 261 256 252 248 239 204 215 222 229 228 236 234 215 219 220 222 227 232 232 232
127 141 133 131 127 122 118 107 107 110 109 107 103 99 98 115 122 123 87 76 70 75 78 85 94 76 84 92 101 117 67 14 351 316 280 295 325 314 312 329 338 349 356 351 348 348 353 10 355 351 340 330 320 301 314 324 308 304 299 297 283 284 282 268 260 251 261 263 248 237 241 248 237 246 234 219 209 195 211 216 218 218 225 230 231
132 146 138 136 137 139 134 124 127 135 131 127 116 120 123 125 112 110 114 125 102 94 89 83 80 98 108 138 133 104 113 197 234 191 43 30 25 6 11 14 17 20 17 11 358 6 10 9 351 358 350 343 323 326 327 320 335 315 295 285 294 288 280 281 268 281 277 268 264 257 259 261 251 242 238 219 215 206 222 223 211 218 226 226 231
144 150 145 142 136 133 124 126 140 146 130 124 126 120 142 144 130 135 133 132 127 98 90 87 87 71 73 62 53 70 126 89 63 50 46 34 27 27 28 24 24 18 16 15 17 14 13 19 16 11 2 1 345 349 337 342 358 343 328 326 312 313 304 29 91 360 300 285 278 268 266 255 260 255 245 223 236 220 210 225 230 230 233 232 224
141 144 137 135 136 128 121 136 158 131 117 127 126 131 133 129 129 148 135 114 80 87 105 91 102 103 134 140 156 137 81 72 59 52 42 32 31 30 28 25 24 18 17 20 22 23 21 24 20 20 356 2 347 343 354 9 342 317 295 333 335 347 338 355 359 341 316 296 289 276 269 258 257 243 213 219 241 241 220 222 230 230 238 237 224
132 136 143 139 140 135 135 153 157 131 121 130 121 118 119 114 108 109 93 93 112 98 75 75 97 156 116 120 91 72 67 61 53 49 47 41 36 33 27 27 23 24 30 31 27 26 20 22 18 18 19 12 0 343 8 6 3 350 0 342 286 325 332 354 330 315 306 352 332 294 296 283 273 253 228 226 235 231 235 225 231 227 226 230 223
137 144 144 138 143 139 147 161 148 129 126 132 122 124 118 103 102 102 105 100 84 91 107 99 109 92 78 58 56 57 56 56 50 48 47 44 37 34 31 22 21 18 30 34 30 21 23 21 19 17 21 17 2 349 0 9 2 32 10 345 335 345 11 318 324 284 360 339 320 331 317 304 286 272 254 254 244 241 236 228 229 231 232 232 229
140 146 141 131 132 136 150 157 117 122 134 136 136 141 141 137 135 125 117 111 107 104 113 116 100 87 79 73 61 57 59 55 49 44 43 41 34 29 30 27 26 25 32 35 29 24 21 21 13 11 14 15 11 12 5 5 355 27 20 27 347 318 331 328 325 325 340 256 314 348 327 346 329 303 279 270 259 250 238 239 229 233 230 224 227
142 140 142 130 129 147 156 135 123 127 138 136 137 137 136 144 141 131 122 123 119 102 89 97 100 93 89 80 75 67 63 60 50 51 42 35 31 25 31 31 32 34 33 32 26 23 15 15 10 17 17 18 23 28 16 0 352 21 3 8 0 358 353 348 350 332 337 339 28 345 356 355 342 324 305 290 285 284 272 251 245 237 241 230 223
143 140 137 130 135 151 151 122 111 136 140 137 141 148 139 136 126 119 117 117 114 113 105 101 98 98 88 86 79 69 64 64 56 47 42 34 33 30 33 32 30 28 32 24 17 16 17 4 20 34 34 32 29 28 15 14 16 359 357 6 4 3 1 3 22 6 317 327 325 340 338 344 331 325 344 328 317 306 295 271 251 249 241 243 230
143 139 133 128 135 141 119 102 124 145 143 139 137 137 126 135 131 129 121 115 114 110 106 103 103 102 99 92 83 77 67 60 61 56 47 38 32 29 32 35 28 26 31 25 20 24 22 26 35 42 38 33 30 26 32 20 18 12 3 8 4 5 359 2 9 3 354 324 317 338 333 333 321 326 346 337 333 323 304 285 264 250 246 243 238
126 116 118 126 131 128 122 132 142 145 136 119 117 117 120 122 120 130 125 126 121 114 112 112 107 102 95 90 87 85 84 74 61 49 38 30 28 26 36 41 40 33 32 27 26 20 19 36 47 50 43 40 26 32 36 25 25 15 17 6 9 356 6 8 15 1 349 11 339 331 338 338 335 330 340 337 329 321 314 304 282 265 259 254 265
121 121 125 133 127 125 132 131 132 117 117 127 132 126 123 121 125 127 124 125 124 121 114 107 108 100 99 95 94 98 89 83 73 53 44 37 33 39 42 41 41 34 29 29 29 22 22 42 50 47 39 37 26 33 30 33 31 23 17 10 7 6 6 3 2 3 358 347 340 335 331 334 319 316 328 328 321 312 310 324 327 308 295 310 278